Location: Anuling
(14.1239°N, 120.8922°E)
Time: 04:58:25
(UTC+00:00)

Delta 2 Rocket - Pass Details

Date: 14 January 2026
Orbit: 890 x 1677 km, 26.4° (Epoch: 11 February)

Event Time Altitude Azimuth Distance (km) Brightness Sun altitude
Rises 10:52:56 0° 294° (WNW) 4,072 8.0 -15.9°
Reaches altitude 10° 10:55:58 10° 295° (WNW) 2,991 7.2 -16.6°
Maximum altitude 11:03:10 84° 24° (NNE) 996 4.0 -18.3°
Enters shadow 11:07:10 24° 110° (ESE) 1,834 5.0 -19.2°
